User: anonymous   Login
Location: Tel Aviv
(32.0670°N, 34.7670°E)
Time: 09:07:19
(UTC+03:00)
Language:

Transit 2A Rocket - Orbit

View from above orbital plane
View from above orbital plane
View from above satellite
View from above satellite

Ground track
Ground track

The orbit data is extracted from the following two-line orbital elements,

1 00047U 60007C   24110.09113580  .00002261  00000-0  51526-3 0  9992
2 00047  66.6687   4.8500 0224606 355.3109   4.5886 14.43469237336832
Epoch (UTC): 19 April 2024 02:11:14
Eccentricity: 0.0224606
inclination: 66.6687°
perigee height: 587 km
apogee height: 907 km
right ascension of ascending node: 4.8500°
argument of perigee: 355.3109°
revolutions per day: 14.43469237
mean anomaly at epoch: 4.5886°
orbit number at epoch: 33683

The dashed part of the orbit path shows where the satellite is in the earth's shadow,  

DLR